| time (UTC) | temp C | wind direction | speed KPH | gust KPH | rain 1hr cm | rain 24hr cm | rain mn cm | humidity % | barometer mb |
| 20260503050537 | 13 | 315 | 16.1 | 22.5 | 0.00 | 0.00 | 0.00 | 59 | 1021.2 |
| 20260503045517 | 14 | 68 | 14.5 | 19.3 | 0.00 | 0.00 | 0.00 | 54 | 1021.2 |
| 20260503044517 | 14 | 113 | 8.0 | 12.9 | 0.00 | 0.00 | 0.00 | 54 | 1021.5 |
| 20260503043517 | 14 | 135 | 16.1 | 20.9 | 0.00 | 0.00 | 0.00 | 53 | 1021.4 |
| 20260503042517 | 13 | 135 | 16.1 | 19.3 | 0.00 | 0.00 | 0.00 | 55 | 1021.3 |
| 20260503041537 | 13 | 158 | 11.3 | 16.1 | 0.00 | 0.00 | 0.00 | 58 | 1020.9 |
| 20260503040516 | 14 | 113 | 9.7 | 12.9 | 0.00 | 0.00 | 0.00 | 53 | 1020.9 |
| 20260503035516 | 14 | 158 | 8.0 | 12.9 | 0.00 | 0.00 | 0.00 | 52 | 1020.9 |
| 20260503034517 | 15 | 68 | 1.6 | 8.0 | 0.00 | 0.00 | 0.00 | 46 | 1020.5 |
| 20260503033516 | 14 | 23 | 6.4 | 8.0 | 0.00 | 0.00 | 0.00 | 50 | 1019.9 |
| 20260503032517 | 14 | 338 | 6.4 | 11.3 | 0.00 | 0.00 | 0.00 | 51 | 1019.5 |
| 20260503031516 | 15 | 23 | 4.8 | 11.3 | 0.00 | 0.00 | 0.00 | 46 | 1019.2 |
| 20260503030517 | 15 | 23 | 8.0 | 16.1 | 0.00 | 0.00 | 0.00 | 46 | 1018.8 |
| 20260503025537 | 15 | 45 | 14.5 | 22.5 | 0.00 | 0.00 | 0.00 | 47 | 1018.4 |
| 20260503024537 | 15 | 23 | 12.9 | 24.1 | 0.00 | 0.00 | 0.00 | 48 | 1018.1 |
| 20260503023517 | 15 | 45 | 12.9 | 20.9 | 0.00 | 0.00 | 0.00 | 49 | 1018.2 |
| 20260503022517 | 15 | 68 | 14.5 | 22.5 | 0.00 | 0.00 | 0.00 | 48 | 1018.0 |
| 20260503021516 | 15 | 45 | 11.3 | 19.3 | 0.00 | 0.00 | 0.00 | 49 | 1018.2 |
| 20260503020516 | 15 | 45 | 11.3 | 16.1 | 0.00 | 0.00 | 0.00 | 52 | 1018.2 |
| 20260503015536 | 14 | 0 | 14.5 | 22.5 | 0.00 | 0.00 | 0.00 | 54 | 1018.2 |
| 20260503014516 | 14 | 338 | 17.7 | 25.7 | 0.00 | 0.00 | 0.00 | 55 | 1018.3 |
| 20260503013537 | 15 | 338 | 14.5 | 17.7 | 0.00 | 0.00 | 0.00 | 50 | 1018.4 |
| 20260503012537 | 15 | 315 | 3.2 | 14.5 | 0.00 | 0.00 | 0.00 | 50 | 1019.1 |
| 20260503011517 | 15 | 293 | 9.7 | 17.7 | 0.00 | 0.00 | 0.00 | 46 | 1019.1 |
| 20260503010517 | 15 | 0.0 | 0.0 | 0.00 | 0.00 | 0.00 | 46 | 1018.4 | |
| 20260503005516 | 16 | 293 | 6.4 | 12.9 | 0.00 | 0.00 | 0.00 | 44 | 1018.2 |
| 20260503004517 | 16 | 113 | 3.2 | 9.7 | 0.00 | 0.00 | 0.00 | 44 | 1018.4 |
| 20260503003516 | 16 | 135 | 3.2 | 9.7 | 0.00 | 0.00 | 0.00 | 47 | 1018.7 |
| 20260503002516 | 17 | 135 | 24.1 | 33.8 | 0.00 | 0.00 | 0.00 | 37 | 1019.1 |
| 20260503001517 | 18 | 113 | 19.3 | 40.2 | 0.00 | 0.00 | 0.00 | 33 | 1018.7 |
| 20260503000516 | 18 | 315 | 20.9 | 29.0 | 0.00 | 0.00 | 0.00 | 34 | 1018.1 |
| 20260502235517 | 18 | 315 | 25.7 | 35.4 | 0.00 | 0.00 | 0.00 | 35 | 1017.5 |
| 20260502234516 | 18 | 315 | 35.4 | 46.7 | 0.00 | 0.00 | 0.00 | 35 | 1017.7 |
| 20260502233517 | 18 | 315 | 30.6 | 40.2 | 0.00 | 0.00 | 0.00 | 34 | 1018.2 |
| 20260502232537 | 18 | 338 | 30.6 | 40.2 | 0.00 | 0.00 | 0.00 | 32 | 1018.3 |
| 20260502231516 | 20 | 315 | 25.7 | 35.4 | 0.00 | 0.00 | 0.00 | 28 | 1018.3 |
| 20260502230516 | 20 | 315 | 19.3 | 25.7 | 0.00 | 0.00 | 0.00 | 25 | 1018.2 |
| 20260502225556 | 21 | 293 | 24.1 | 37.0 | 0.00 | 0.00 | 0.00 | 24 | 1018.8 |
| 20260502224516 | 22 | 203 | 12.9 | 25.7 | 0.00 | 0.00 | 0.00 | 20 | 1018.9 |
| 20260502223516 | 22 | 158 | 9.7 | 16.1 | 0.00 | 0.00 | 0.00 | 19 | 1018.9 |
| 20260502222516 | 22 | 180 | 9.7 | 17.7 | 0.00 | 0.00 | 0.00 | 20 | 1018.8 |
| 20260502221516 | 22 | 135 | 19.3 | 25.7 | 0.00 | 0.00 | 0.00 | 20 | 1018.9 |
| 20260502220516 | 21 | 158 | 22.5 | 48.3 | 0.00 | 0.00 | 0.00 | 20 | 1019.1 |
| 20260502215516 | 21 | 180 | 20.9 | 53.1 | 0.00 | 0.00 | 0.00 | 19 | 1019.4 |
| 20260502214516 | 21 | 158 | 20.9 | 37.0 | 0.00 | 0.00 | 0.00 | 20 | 1019.4 |
| 20260502213516 | 21 | 158 | 16.1 | 27.4 | 0.00 | 0.00 | 0.00 | 20 | 1019.7 |
| 20260502212516 | 21 | 180 | 12.9 | 41.8 | 0.00 | 0.00 | 0.00 | 20 | 1019.8 |
| 20260502211516 | 21 | 225 | 17.7 | 25.7 | 0.00 | 0.00 | 0.00 | 22 | 1020.1 |
| 20260502210536 | 21 | 203 | 11.3 | 16.1 | 0.00 | 0.00 | 0.00 | 22 | 1020.3 |
| 20260502205536 | 22 | 158 | 20.9 | 30.6 | 0.00 | 0.00 | 0.00 | 21 | 1020.3 |
| 20260502204516 | 22 | 158 | 19.3 | 33.8 | 0.00 | 0.00 | 0.00 | 21 | 1020.4 |
| 20260502203516 | 22 | 225 | 12.9 | 24.1 | 0.00 | 0.00 | 0.00 | 21 | 1020.2 |
| 20260502202516 | 22 | 158 | 11.3 | 27.4 | 0.00 | 0.00 | 0.00 | 21 | 1020.8 |
| 20260502201516 | 22 | 203 | 16.1 | 33.8 | 0.00 | 0.00 | 0.00 | 20 | 1020.8 |
| 20260502200516 | 22 | 180 | 20.9 | 29.0 | 0.00 | 0.00 | 0.00 | 19 | 1021.1 |
| 20260502195516 | 22 | 248 | 1.6 | 9.7 | 0.00 | 0.00 | 0.00 | 20 | 1020.5 |
| 20260502194516 | 22 | 270 | 8.0 | 14.5 | 0.00 | 0.00 | 0.00 | 19 | 1020.9 |
| 20260502193516 | 22 | 225 | 9.7 | 27.4 | 0.00 | 0.00 | 0.00 | 19 | 1020.9 |
| 20260502192516 | 22 | 203 | 14.5 | 22.5 | 0.00 | 0.00 | 0.00 | 19 | 1021.4 |
| 20260502191516 | 22 | 158 | 19.3 | 32.2 | 0.00 | 0.00 | 0.00 | 18 | 1021.4 |
| 20260502190516 | 22 | 158 | 17.7 | 27.4 | 0.00 | 0.00 | 0.00 | 18 | 1021.5 |
| 20260502185516 | 22 | 180 | 17.7 | 24.1 | 0.00 | 0.00 | 0.00 | 19 | 1021.9 |
| 20260502184556 | 22 | 158 | 20.9 | 32.2 | 0.00 | 0.00 | 0.00 | 19 | 1021.9 |
| 20260502183516 | 21 | 158 | 17.7 | 33.8 | 0.00 | 0.00 | 0.00 | 20 | 1022.1 |
| 20260502182516 | 21 | 158 | 16.1 | 25.7 | 0.00 | 0.00 | 0.00 | 20 | 1022.1 |
| 20260502181516 | 21 | 225 | 9.7 | 22.5 | 0.00 | 0.00 | 0.00 | 21 | 1021.9 |
| 20260502180516 | 20 | 135 | 8.0 | 16.1 | 0.00 | 0.00 | 0.00 | 21 | 1022.2 |
| 20260502170516 | 19 | 90 | 1.6 | 8.0 | 0.00 | 0.00 | 0.00 | 21 | 1022.2 |
| 20260502163516 | 17 | 0.0 | 0.0 | 0.00 | 0.00 | 0.00 | 24 | 1021.4 | |
| 20260502162516 | 17 | 0.0 | 0.0 | 0.00 | 0.00 | 0.00 | 22 | 1021.3 | |
| 20260502161515 | 16 | 0.0 | 0.0 | 0.00 | 0.00 | 0.00 | 24 | 1021.4 | |
| 20260502160516 | 16 | 0.0 | 1.6 | 0.00 | 0.00 | 0.00 | 26 | 1021.5 | |
| 20260502151516 | 11 | 0.0 | 0.0 | 0.00 | 0.00 | 0.00 | 29 | 1021.2 | |
| 20260502150516 | 11 | 0.0 | 0.0 | 0.00 | 0.00 | 0.00 | 30 | 1020.9 | |
| 20260502130516 | 7 | 0.0 | 0.0 | 0.00 | 0.00 | 0.00 | 33 | 1019.5 | |
| 20260502123535 | 10 | 135 | 1.6 | 4.8 | 0.00 | 0.00 | 0.00 | 26 | 1020.2 |
| 20260502122536 | 10 | 113 | 4.8 | 4.8 | 0.00 | 0.00 | 0.00 | 25 | 1020.4 |
| 20260502121515 | 10 | 113 | 4.8 | 6.4 | 0.00 | 0.00 | 0.00 | 27 | 1020.4 |
| 20260502120515 | 9 | 113 | 1.6 | 3.2 | 0.00 | 0.00 | 0.00 | 27 | 1020.2 |
| 20260502115515 | 8 | 0.0 | 0.0 | 0.00 | 0.00 | 0.00 | 27 | 1020.1 | |
| 20260502113515 | 10 | 0.0 | 0.0 | 0.00 | 0.00 | 0.00 | 24 | 1020.6 | |
| 20260502112515 | 10 | 113 | 3.2 | 6.4 | 0.00 | 0.00 | 0.00 | 25 | 1020.3 |
| 20260502111515 | 10 | 113 | 6.4 | 8.0 | 0.00 | 0.00 | 0.00 | 27 | 1020.2 |
| 20260502110516 | 10 | 0.0 | 4.8 | 0.00 | 0.00 | 0.00 | 25 | 1020.4 | |
| 20260502105516 | 11 | 0.0 | 0.0 | 0.00 | 0.00 | 0.00 | 23 | 1020.6 | |
| 20260502104515 | 11 | 0.0 | 0.0 | 0.00 | 0.00 | 0.00 | 22 | 1020.5 | |
| 20260502103515 | 12 | 0.0 | 0.0 | 0.00 | 0.00 | 0.00 | 22 | 1020.6 | |
| 20260502102535 | 11 | 0.0 | 0.0 | 0.00 | 0.00 | 0.00 | 22 | 1020.5 | |
| 20260502101515 | 10 | 0.0 | 0.0 | 0.00 | 0.00 | 0.00 | 23 | 1020.2 | |
| 20260502100515 | 10 | 0.0 | 0.0 | 0.00 | 0.00 | 0.00 | 24 | 1020.3 | |
| 20260502091515 | 12 | 0.0 | 0.0 | 0.00 | 0.00 | 0.00 | 20 | 1020.9 | |
| 20260502090535 | 12 | 0.0 | 0.0 | 0.00 | 0.00 | 0.00 | 20 | 1020.9 | |
| 20260502070517 | 14 | 0.0 | 0.0 | 0.00 | 0.00 | 0.00 | 17 | 1021.3 | |
| 20260502065517 | 15 | 0.0 | 0.0 | 0.00 | 0.00 | 0.00 | 17 | 1021.3 | |
| 20260502064515 | 16 | 0.0 | 0.0 | 0.00 | 0.00 | 0.00 | 15 | 1021.6 | |
| 20260502063517 | 16 | 0.0 | 0.0 | 0.00 | 0.00 | 0.00 | 15 | 1021.5 | |
| 20260502062517 | 16 | 0.0 | 0.0 | 0.00 | 0.00 | 0.00 | 16 | 1021.3 | |
| 20260502061517 | 16 | 0.0 | 0.0 | 0.00 | 0.00 | 0.00 | 15 | 1021.6 | |
| 20260502060517 | 17 | 0.0 | 0.0 | 0.00 | 0.00 | 0.00 | 15 | 1021.7 | |
| 20260502055557 | 17 | 0.0 | 0.0 | 0.00 | 0.00 | 0.00 | 14 | 1021.7 | |
| 20260502054517 | 17 | 0.0 | 0.0 | 0.00 | 0.00 | 0.00 | 15 | 1021.7 | |
| 20260502053517 | 16 | 0.0 | 0.0 | 0.00 | 0.00 | 0.00 | 16 | 1021.5 | |
| 20260502052557 | 16 | 0.0 | 0.0 | 0.00 | 0.00 | 0.00 | 16 | 1021.5 | |
| 20260502051517 | 16 | 0.0 | 0.0 | 0.00 | 0.00 | 0.00 | 15 | 1021.4 |